Location: Fredericksburg
(30.2750°N, 98.8720°W)
Time: 15:33:50
(UTC-05:00)

PCSat - Visible Passes

Search period start: 23 May 2018 00:00
Search period end: 02 June 2018 00:00
Orbit: 784 x 795 km, 67.1° (Epoch: 22 May)

Date Brightness Start Highest point End Pass type
(mag) Time Alt. Az. Time Alt. Az. Time Alt. Az.
23 May 12.1 04:33:57 10° SE 04:36:08 12° ESE 04:38:20 10° E visible
24 May 9.6 05:42:35 10° SSW 05:47:59 88° WNW 05:53:26 10° NNE visible
25 May 9.9 05:12:48 16° S 05:17:06 64° ESE 05:22:27 10° NNE visible
26 May 10.5 04:43:11 22° SSE 04:46:15 43° ESE 04:51:21 10° NE visible
27 May 11.0 04:13:30 23° SE 04:15:26 29° ESE 04:20:04 10° NE visible
27 May 10.7 05:54:14 11° WSW 05:58:42 28° WNW 06:03:21 10° N visible
28 May 11.4 03:43:45 19° ESE 03:44:39 20° ESE 03:48:31 10° ENE visible
28 May 10.2 05:24:29 20° WSW 05:27:41 40° WNW 05:32:47 10° N visible
29 May 11.9 03:13:57 13° ESE 03:13:57 13° ESE 03:16:26 10° ENE visible
29 May 9.7 04:54:40 36° SW 04:56:43 58° WNW 05:02:04 10° NNE visible
30 May 9.4 04:24:47 61° SW 04:25:47 84° WNW 04:31:14 10° NNE visible
31 May 9.6 03:54:53 67° ESE 03:54:54 67° ESE 04:00:17 10° NNE visible
31 May 11.6 05:36:01 10° W 05:38:44 14° NW 05:41:28 10° NNW visible
01 Jun 10.5 03:24:53 42° E 03:24:53 42° E 03:29:11 10° NE visible
01 Jun 11.2 05:05:36 16° W 05:07:36 19° NW 05:11:28 10° N visible
